| time (UTC) | temp F | wind direction | speed knots | gust knots | rain 1hr in | rain 24hr in | rain mn in | humidity % | barometer mb |
| 20260502233547 | 46 | 337 | 11.3 | 18.2 | 0.00 | 0.00 | 0.00 | 51 | 1011.0 |
| 20260502233059 | 47 | 339 | 6.1 | 15.6 | 0.00 | 0.00 | 0.00 | 53 | 1010.9 |
| 20260502232548 | 47 | 4 | 8.7 | 16.5 | 0.00 | 0.00 | 0.00 | 51 | 1010.9 |
| 20260502232046 | 47 | 337 | 8.7 | 16.5 | 0.00 | 0.00 | 0.00 | 51 | 1010.9 |
| 20260502231551 | 47 | 335 | 11.3 | 18.2 | 0.00 | 0.00 | 0.00 | 51 | 1010.8 |
| 20260502231049 | 47 | 342 | 13.9 | 18.2 | 0.00 | 0.00 | 0.00 | 51 | 1010.8 |
| 20260502230549 | 47 | 332 | 11.3 | 17.4 | 0.00 | 0.00 | 0.00 | 51 | 1010.7 |
| 20260502230104 | 47 | 322 | 12.2 | 17.4 | 0.00 | 0.00 | 0.00 | 51 | 1010.8 |
| 20260502225548 | 47 | 319 | 13.0 | 17.4 | 0.00 | 0.00 | 0.00 | 50 | 1010.7 |
| 20260502225047 | 48 | 333 | 11.3 | 16.5 | 0.00 | 0.00 | 0.00 | 50 | 1010.7 |
| 20260502224552 | 48 | 351 | 8.7 | 13.9 | 0.00 | 0.00 | 0.00 | 50 | 1010.8 |
| 20260502224048 | 49 | 354 | 7.0 | 12.2 | 0.00 | 0.00 | 0.00 | 48 | 1010.8 |
| 20260502223548 | 49 | 345 | 7.0 | 12.2 | 0.00 | 0.00 | 0.00 | 47 | 1010.9 |
| 20260502223053 | 49 | 338 | 5.2 | 13.9 | 0.00 | 0.00 | 0.00 | 49 | 1011.0 |
| 20260502222549 | 49 | 349 | 9.6 | 13.9 | 0.00 | 0.00 | 0.00 | 48 | 1010.9 |
| 20260502222052 | 49 | 350 | 7.0 | 14.8 | 0.00 | 0.00 | 0.00 | 47 | 1010.9 |
| 20260502221554 | 49 | 287 | 7.8 | 14.8 | 0.00 | 0.00 | 0.00 | 46 | 1010.9 |
| 20260502221051 | 49 | 339 | 8.7 | 19.1 | 0.00 | 0.00 | 0.00 | 46 | 1010.7 |
| 20260502220548 | 50 | 342 | 11.3 | 19.1 | 0.00 | 0.00 | 0.00 | 47 | 1010.6 |
| 20260502220055 | 50 | 336 | 9.6 | 15.6 | 0.00 | 0.00 | 0.00 | 47 | 1010.6 |
| 20260502215549 | 50 | 226 | 6.1 | 17.4 | 0.00 | 0.00 | 0.00 | 50 | 1010.6 |
| 20260502215048 | 49 | 340 | 8.7 | 17.4 | 0.00 | 0.00 | 0.00 | 49 | 1010.6 |
| 20260502214552 | 49 | 349 | 7.8 | 18.2 | 0.00 | 0.00 | 0.00 | 48 | 1010.5 |
| 20260502214048 | 49 | 344 | 12.2 | 18.2 | 0.00 | 0.00 | 0.00 | 48 | 1010.6 |
| 20260502213548 | 50 | 320 | 9.6 | 19.1 | 0.00 | 0.00 | 0.00 | 48 | 1010.5 |
| 20260502213051 | 51 | 5 | 12.2 | 20.9 | 0.00 | 0.00 | 0.00 | 47 | 1010.4 |
| 20260502212548 | 51 | 338 | 14.8 | 21.7 | 0.00 | 0.00 | 0.00 | 46 | 1010.3 |
| 20260502212049 | 52 | 331 | 15.6 | 21.7 | 0.00 | 0.00 | 0.00 | 45 | 1010.2 |
| 20260502211558 | 52 | 330 | 14.8 | 21.7 | 0.00 | 0.00 | 0.00 | 46 | 1010.3 |
| 20260502211051 | 51 | 327 | 8.7 | 19.1 | 0.00 | 0.00 | 0.00 | 46 | 1010.1 |
| 20260502210553 | 51 | 334 | 11.3 | 23.5 | 0.00 | 0.00 | 0.00 | 48 | 1010.0 |
| 20260502210056 | 51 | 339 | 11.3 | 23.5 | 0.00 | 0.00 | 0.00 | 48 | 1010.0 |
| 20260502205549 | 51 | 349 | 13.9 | 20.0 | 0.00 | 0.00 | 0.00 | 45 | 1009.8 |
| 20260502205049 | 52 | 340 | 12.2 | 20.9 | 0.00 | 0.00 | 0.00 | 44 | 1009.8 |
| 20260502204607 | 53 | 342 | 12.2 | 22.6 | 0.00 | 0.00 | 0.00 | 44 | 1009.8 |
| 20260502204050 | 53 | 337 | 13.9 | 22.6 | 0.00 | 0.00 | 0.00 | 46 | 1009.6 |
| 20260502203550 | 53 | 321 | 15.6 | 22.6 | 0.00 | 0.00 | 0.00 | 44 | 1009.5 |
| 20260502203054 | 53 | 323 | 15.6 | 22.6 | 0.00 | 0.00 | 0.00 | 45 | 1009.6 |
| 20260502202550 | 53 | 316 | 13.9 | 20.9 | 0.00 | 0.00 | 0.00 | 44 | 1009.7 |
| 20260502202048 | 53 | 350 | 13.9 | 20.9 | 0.00 | 0.00 | 0.00 | 42 | 1009.7 |
| 20260502201557 | 54 | 340 | 13.0 | 18.2 | 0.00 | 0.00 | 0.00 | 42 | 1009.7 |
| 20260502201049 | 54 | 337 | 8.7 | 19.1 | 0.00 | 0.00 | 0.00 | 41 | 1009.7 |
| 20260502200550 | 54 | 342 | 8.7 | 19.1 | 0.00 | 0.00 | 0.00 | 42 | 1009.8 |
| 20260502200058 | 54 | 341 | 13.9 | 21.7 | 0.00 | 0.00 | 0.00 | 41 | 1009.6 |
| 20260502195550 | 55 | 355 | 14.8 | 21.7 | 0.00 | 0.00 | 0.00 | 41 | 1009.7 |
| 20260502195050 | 56 | 335 | 8.7 | 16.5 | 0.00 | 0.00 | 0.00 | 43 | 1009.7 |
| 20260502194555 | 56 | 356 | 5.2 | 17.4 | 0.00 | 0.00 | 0.00 | 41 | 1009.9 |
| 20260502194052 | 56 | 344 | 9.6 | 17.4 | 0.00 | 0.00 | 0.00 | 42 | 1009.9 |
| 20260502193549 | 56 | 4 | 9.6 | 17.4 | 0.00 | 0.00 | 0.00 | 41 | 1009.8 |
| 20260502193057 | 55 | 313 | 4.3 | 17.4 | 0.00 | 0.00 | 0.00 | 43 | 1009.9 |
| 20260502192549 | 55 | 337 | 7.0 | 17.4 | 0.00 | 0.00 | 0.00 | 41 | 1009.9 |
| 20260502192046 | 56 | 341 | 12.2 | 17.4 | 0.00 | 0.00 | 0.00 | 41 | 1009.7 |
| 20260502191601 | 56 | 330 | 6.1 | 14.8 | 0.00 | 0.00 | 0.00 | 38 | 1009.7 |
| 20260502191051 | 57 | 19 | 7.8 | 12.2 | 0.00 | 0.00 | 0.00 | 39 | 1009.6 |
| 20260502190548 | 57 | 1 | 7.0 | 12.2 | 0.00 | 0.00 | 0.00 | 40 | 1009.6 |
| 20260502190054 | 56 | 17 | 5.2 | 13.9 | 0.00 | 0.00 | 0.00 | 41 | 1009.4 |
| 20260502185550 | 56 | 331 | 4.3 | 19.1 | 0.00 | 0.00 | 0.00 | 38 | 1009.5 |
| 20260502185047 | 56 | 343 | 9.6 | 21.7 | 0.00 | 0.00 | 0.00 | 40 | 1009.6 |
| 20260502184551 | 56 | 338 | 13.9 | 21.7 | 0.00 | 0.00 | 0.00 | 40 | 1009.5 |
| 20260502184048 | 56 | 350 | 10.4 | 19.1 | 0.00 | 0.00 | 0.00 | 39 | 1009.6 |
| 20260502183549 | 56 | 343 | 5.2 | 17.4 | 0.00 | 0.00 | 0.00 | 39 | 1009.6 |
| 20260502183055 | 57 | 315 | 11.3 | 17.4 | 0.00 | 0.00 | 0.00 | 40 | 1009.7 |
| 20260502182548 | 56 | 1 | 4.3 | 8.7 | 0.00 | 0.00 | 0.00 | 43 | 1009.6 |
| 20260502182048 | 56 | 326 | 4.3 | 12.2 | 0.00 | 0.00 | 0.00 | 40 | 1009.6 |
| 20260502181552 | 55 | 320 | 7.0 | 15.6 | 0.00 | 0.00 | 0.00 | 41 | 1009.7 |
| 20260502181048 | 55 | 346 | 8.7 | 15.6 | 0.00 | 0.00 | 0.00 | 46 | 1009.9 |
| 20260502180548 | 55 | 2 | 8.7 | 15.6 | 0.00 | 0.00 | 0.00 | 42 | 1009.9 |
| 20260502164048 | 51 | 328 | 7.0 | 13.9 | 0.00 | 0.00 | 0.00 | 47 | 1011.3 |
| 20260502163548 | 51 | 340 | 6.1 | 12.2 | 0.00 | 0.00 | 0.00 | 45 | 1011.3 |
| 20260502163103 | 51 | 345 | 7.8 | 12.2 | 0.00 | 0.00 | 0.00 | 45 | 1011.3 |
| 20260502162547 | 51 | 360 | 2.6 | 13.9 | 0.00 | 0.00 | 0.00 | 50 | 1011.3 |
| 20260502162048 | 51 | 346 | 7.8 | 13.9 | 0.00 | 0.00 | 0.00 | 44 | 1011.4 |
| 20260502161559 | 51 | 335 | 7.0 | 15.6 | 0.00 | 0.00 | 0.00 | 46 | 1011.4 |
| 20260502161049 | 51 | 346 | 9.6 | 16.5 | 0.00 | 0.00 | 0.00 | 46 | 1011.4 |
| 20260502160546 | 50 | 347 | 9.6 | 16.5 | 0.00 | 0.00 | 0.00 | 45 | 1011.3 |
| 20260502152049 | 46 | 338 | 7.8 | 15.6 | 0.00 | 0.00 | 0.00 | 55 | 1011.7 |
| 20260502151556 | 45 | 305 | 8.7 | 16.5 | 0.00 | 0.00 | 0.00 | 58 | 1011.8 |
| 20260502151048 | 44 | 330 | 10.4 | 16.5 | 0.00 | 0.00 | 0.00 | 57 | 1011.7 |
| 20260502150548 | 44 | 333 | 8.7 | 14.8 | 0.00 | 0.00 | 0.00 | 57 | 1011.8 |
| 20260502150110 | 44 | 344 | 8.7 | 14.8 | 0.00 | 0.00 | 0.00 | 58 | 1011.7 |
| 20260502130549 | 42 | 356 | 7.8 | 12.2 | 0.00 | 0.00 | 0.00 | 61 | 1011.9 |
| 20260502130108 | 42 | 339 | 3.5 | 7.8 | 0.00 | 0.00 | 0.00 | 63 | 1011.8 |
| 20260502123547 | 41 | 352 | 6.1 | 15.6 | 0.00 | 0.00 | 0.00 | 62 | 1011.5 |
| 20260502123102 | 41 | 342 | 9.6 | 15.6 | 0.00 | 0.00 | 0.00 | 61 | 1011.5 |
| 20260502122547 | 41 | 358 | 7.0 | 13.0 | 0.00 | 0.00 | 0.00 | 62 | 1011.4 |
| 20260502122047 | 41 | 347 | 7.0 | 13.0 | 0.00 | 0.00 | 0.00 | 62 | 1011.3 |
| 20260502121554 | 41 | 353 | 6.1 | 13.0 | 0.00 | 0.00 | 0.00 | 63 | 1011.1 |
| 20260502121047 | 41 | 357 | 7.8 | 13.0 | 0.00 | 0.00 | 0.00 | 61 | 1011.1 |
| 20260502120547 | 41 | 344 | 7.0 | 11.3 | 0.00 | 0.00 | 0.00 | 61 | 1011.1 |
| 20260502115545 | 41 | 2 | 5.2 | 8.7 | 0.00 | 0.00 | 0.00 | 62 | 1011.3 |
| 20260502115052 | 41 | 359 | 4.3 | 10.4 | 0.00 | 0.00 | 0.00 | 63 | 1011.4 |
| 20260502114553 | 41 | 356 | 4.3 | 10.4 | 0.00 | 0.00 | 0.00 | 63 | 1011.4 |
| 20260502114048 | 41 | 337 | 6.1 | 9.6 | 0.00 | 0.00 | 0.00 | 64 | 1011.4 |
| 20260502113549 | 41 | 342 | 5.2 | 8.7 | 0.00 | 0.00 | 0.00 | 65 | 1011.3 |
| 20260502113052 | 41 | 342 | 5.2 | 7.8 | 0.00 | 0.00 | 0.00 | 66 | 1011.2 |
| 20260502112548 | 41 | 358 | 5.2 | 7.8 | 0.00 | 0.00 | 0.00 | 67 | 1011.1 |
| 20260502112047 | 41 | 1 | 4.3 | 9.6 | 0.00 | 0.00 | 0.00 | 67 | 1011.0 |
| 20260502111555 | 41 | 352 | 6.1 | 9.6 | 0.00 | 0.00 | 0.00 | 68 | 1011.0 |
| 20260502111047 | 41 | 360 | 5.2 | 7.8 | 0.00 | 0.00 | 0.00 | 68 | 1011.1 |
| 20260502110547 | 41 | 342 | 4.3 | 8.7 | 0.00 | 0.00 | 0.00 | 68 | 1011.0 |
| 20260502110056 | 41 | 4 | 5.2 | 11.3 | 0.00 | 0.00 | 0.00 | 67 | 1011.0 |
| 20260502105548 | 41 | 1 | 6.1 | 11.3 | 0.00 | 0.00 | 0.00 | 66 | 1010.8 |
| 20260502105047 | 41 | 342 | 7.0 | 13.0 | 0.00 | 0.00 | 0.00 | 65 | 1010.6 |
| 20260502104557 | 41 | 343 | 6.1 | 13.0 | 0.00 | 0.00 | 0.00 | 65 | 1010.8 |
| 20260502104046 | 40 | 345 | 7.8 | 13.0 | 0.00 | 0.00 | 0.00 | 64 | 1010.7 |
| 20260502103546 | 41 | 352 | 5.2 | 9.6 | 0.00 | 0.00 | 0.00 | 64 | 1010.9 |
| 20260502103054 | 41 | 342 | 4.3 | 11.3 | 0.00 | 0.00 | 0.00 | 64 | 1011.0 |
| 20260502102548 | 41 | 353 | 6.1 | 11.3 | 0.00 | 0.00 | 0.00 | 64 | 1011.0 |
| 20260502102048 | 41 | 358 | 7.0 | 13.0 | 0.00 | 0.00 | 0.00 | 64 | 1010.9 |
| 20260502101552 | 41 | 346 | 7.0 | 13.0 | 0.00 | 0.00 | 0.00 | 64 | 1011.0 |
| 20260502101048 | 41 | 335 | 5.2 | 13.0 | 0.00 | 0.00 | 0.00 | 66 | 1011.1 |
| 20260502100547 | 41 | 354 | 7.8 | 13.0 | 0.00 | 0.00 | 0.00 | 66 | 1011.0 |
| 20260502091050 | 43 | 4 | 6.1 | 12.2 | 0.00 | 0.00 | 0.00 | 74 | 1011.2 |
| 20260502090546 | 43 | 354 | 7.8 | 16.5 | 0.00 | 0.00 | 0.00 | 74 | 1011.3 |
| 20260502071047 | 45 | 354 | 7.8 | 11.3 | 0.00 | 0.00 | 0.00 | 74 | 1010.6 |
| 20260502070549 | 45 | 350 | 6.1 | 9.6 | 0.00 | 0.00 | 0.00 | 75 | 1010.7 |
| 20260502070055 | 45 | 1 | 6.1 | 8.7 | 0.00 | 0.00 | 0.00 | 74 | 1010.8 |
| 20260502065547 | 45 | 348 | 5.2 | 11.3 | 0.00 | 0.00 | 0.00 | 75 | 1010.9 |
| 20260502065047 | 45 | 1 | 7.0 | 11.3 | 0.00 | 0.00 | 0.00 | 75 | 1010.9 |
| 20260502064558 | 45 | 1 | 7.0 | 10.4 | 0.00 | 0.00 | 0.00 | 75 | 1011.0 |
| 20260502064048 | 45 | 357 | 5.2 | 8.7 | 0.00 | 0.00 | 0.00 | 75 | 1011.1 |
| 20260502063548 | 45 | 3 | 5.2 | 8.7 | 0.00 | 0.00 | 0.00 | 75 | 1011.0 |
| 20260502063117 | 46 | 359 | 6.1 | 8.7 | 0.00 | 0.00 | 0.00 | 75 | 1011.3 |
| 20260502062548 | 46 | 357 | 4.3 | 8.7 | 0.00 | 0.00 | 0.00 | 75 | 1011.3 |
| 20260502062046 | 46 | 4 | 6.1 | 8.7 | 0.00 | 0.00 | 0.00 | 75 | 1011.4 |
| 20260502061555 | 46 | 357 | 5.2 | 8.7 | 0.00 | 0.00 | 0.00 | 75 | 1011.3 |
| 20260502061048 | 46 | 360 | 5.2 | 10.4 | 0.00 | 0.00 | 0.00 | 75 | 1011.5 |
| 20260502060548 | 46 | 8 | 7.0 | 10.4 | 0.00 | 0.00 | 0.00 | 75 | 1011.5 |
| 20260502060058 | 46 | 354 | 5.2 | 10.4 | 0.00 | 0.00 | 0.00 | 76 | 1011.5 |
| 20260502055547 | 46 | 354 | 6.1 | 10.4 | 0.00 | 0.00 | 0.00 | 75 | 1011.5 |
| 20260502055048 | 46 | 354 | 5.2 | 9.6 | 0.00 | 0.00 | 0.00 | 75 | 1011.5 |
| 20260502054606 | 46 | 352 | 5.2 | 9.6 | 0.00 | 0.00 | 0.00 | 74 | 1011.4 |
| 20260502054047 | 46 | 346 | 7.0 | 9.6 | 0.00 | 0.00 | 0.00 | 74 | 1011.5 |
| 20260502053547 | 46 | 349 | 4.3 | 8.7 | 0.00 | 0.00 | 0.00 | 73 | 1011.5 |
| 20260502053103 | 46 | 354 | 5.2 | 8.7 | 0.00 | 0.00 | 0.00 | 73 | 1011.4 |
| 20260502052549 | 46 | 354 | 5.2 | 9.6 | 0.00 | 0.00 | 0.00 | 72 | 1011.4 |
| 20260502052048 | 46 | 357 | 7.0 | 9.6 | 0.00 | 0.00 | 0.00 | 72 | 1011.3 |
| 20260502051559 | 47 | 339 | 7.0 | 12.2 | 0.00 | 0.00 | 0.00 | 72 | 1011.2 |
| 20260502051050 | 47 | 335 | 7.0 | 13.0 | 0.00 | 0.00 | 0.00 | 72 | 1011.1 |
| 20260502050547 | 47 | 332 | 7.0 | 13.0 | 0.00 | 0.00 | 0.00 | 72 | 1011.1 |
| 20260502050057 | 47 | 344 | 7.0 | 13.0 | 0.00 | 0.00 | 0.00 | 73 | 1011.1 |
| 20260502045550 | 47 | 342 | 7.8 | 13.0 | 0.00 | 0.00 | 0.00 | 73 | 1011.2 |
| 20260502045047 | 47 | 348 | 7.0 | 12.2 | 0.00 | 0.00 | 0.00 | 73 | 1011.1 |
| 20260502044559 | 47 | 1 | 6.1 | 12.2 | 0.00 | 0.00 | 0.00 | 72 | 1011.2 |
| 20260502044048 | 47 | 348 | 7.8 | 13.9 | 0.00 | 0.00 | 0.00 | 73 | 1011.1 |
| 20260502043549 | 47 | 348 | 7.8 | 13.9 | 0.00 | 0.00 | 0.00 | 73 | 1011.3 |
| 20260502043101 | 48 | 340 | 8.7 | 15.6 | 0.00 | 0.00 | 0.00 | 73 | 1011.2 |
| 20260502042546 | 48 | 326 | 9.6 | 15.6 | 0.00 | 0.00 | 0.00 | 73 | 1011.2 |
| 20260502042048 | 48 | 347 | 10.4 | 14.8 | 0.00 | 0.00 | 0.00 | 73 | 1011.2 |
| 20260502041558 | 48 | 1 | 10.4 | 14.8 | 0.00 | 0.00 | 0.00 | 73 | 1011.0 |
| 20260502041048 | 48 | 5 | 7.0 | 13.0 | 0.00 | 0.00 | 0.00 | 74 | 1011.1 |
| 20260502040545 | 48 | 360 | 4.3 | 8.7 | 0.00 | 0.00 | 0.00 | 73 | 1011.4 |
| 20260502040104 | 48 | 5 | 4.3 | 8.7 | 0.00 | 0.00 | 0.00 | 73 | 1011.4 |
| 20260502035548 | 48 | 354 | 3.5 | 9.6 | 0.00 | 0.00 | 0.00 | 73 | 1011.3 |
| 20260502035049 | 49 | 5 | 5.2 | 13.9 | 0.00 | 0.00 | 0.00 | 73 | 1011.3 |
| 20260502034558 | 49 | 15 | 4.3 | 13.9 | 0.00 | 0.00 | 0.00 | 72 | 1011.2 |
| 20260502034049 | 49 | 348 | 10.4 | 13.9 | 0.00 | 0.00 | 0.00 | 72 | 1011.3 |
| 20260502033546 | 49 | 349 | 7.8 | 13.9 | 0.00 | 0.00 | 0.00 | 71 | 1011.1 |
| 20260502033054 | 49 | 347 | 9.6 | 13.9 | 0.00 | 0.00 | 0.00 | 70 | 1011.2 |
| 20260502032549 | 50 | 340 | 6.1 | 9.6 | 0.00 | 0.00 | 0.00 | 69 | 1011.3 |
| 20260502032047 | 50 | 3 | 4.3 | 9.6 | 0.00 | 0.00 | 0.00 | 69 | 1011.5 |
| 20260502031556 | 50 | 349 | 4.3 | 9.6 | 0.00 | 0.00 | 0.00 | 68 | 1011.4 |
| 20260502031047 | 50 | 6 | 3.5 | 7.8 | 0.00 | 0.00 | 0.00 | 67 | 1011.5 |
| 20260502030547 | 51 | 10 | 3.5 | 7.8 | 0.00 | 0.00 | 0.00 | 66 | 1011.4 |
| 20260502030053 | 51 | 9 | 4.3 | 7.8 | 0.00 | 0.00 | 0.00 | 65 | 1011.4 |
| 20260502025546 | 51 | 1 | 4.3 | 13.9 | 0.00 | 0.00 | 0.00 | 64 | 1011.2 |
| 20260502025049 | 51 | 6 | 6.1 | 13.9 | 0.00 | 0.00 | 0.00 | 63 | 1011.1 |
| 20260502024605 | 51 | 340 | 10.4 | 13.9 | 0.00 | 0.00 | 0.00 | 63 | 1011.0 |
| 20260502024046 | 51 | 345 | 6.1 | 10.4 | 0.00 | 0.00 | 0.00 | 65 | 1010.9 |
| 20260502023546 | 52 | 316 | 2.6 | 7.8 | 0.00 | 0.00 | 0.00 | 69 | 1011.0 |
| 20260502023053 | 52 | 329 | 1.7 | 6.1 | 0.00 | 0.00 | 0.00 | 66 | 1010.9 |
| 20260502022547 | 52 | 214 | 2.6 | 6.1 | 0.00 | 0.00 | 0.00 | 69 | 1010.9 |
| 20260502022046 | 52 | 190 | 0.9 | 7.0 | 0.00 | 0.00 | 0.00 | 70 | 1010.7 |
| 20260502021558 | 52 | 171 | 4.3 | 7.0 | 0.00 | 0.00 | 0.00 | 70 | 1010.6 |
| 20260502021046 | 52 | 174 | 3.5 | 7.0 | 0.00 | 0.00 | 0.00 | 70 | 1010.5 |
| 20260502020546 | 52 | 174 | 4.3 | 7.0 | 0.00 | 0.00 | 0.00 | 69 | 1010.3 |
| 20260502020056 | 52 | 184 | 3.5 | 6.1 | 0.00 | 0.00 | 0.00 | 68 | 1010.3 |
| 20260502015549 | 52 | 188 | 3.5 | 6.1 | 0.00 | 0.00 | 0.00 | 68 | 1010.2 |
| 20260502015049 | 53 | 198 | 3.5 | 5.2 | 0.00 | 0.00 | 0.00 | 67 | 1010.0 |
| 20260502014557 | 53 | 165 | 3.5 | 5.2 | 0.00 | 0.00 | 0.00 | 66 | 1009.9 |
| 20260502014048 | 53 | 172 | 3.5 | 5.2 | 0.00 | 0.00 | 0.00 | 66 | 1009.9 |
| 20260502013551 | 53 | 189 | 1.7 | 5.2 | 0.00 | 0.00 | 0.00 | 65 | 1010.0 |
| 20260502013100 | 53 | 205 | 2.6 | 5.2 | 0.00 | 0.00 | 0.00 | 64 | 1009.8 |
| 20260502012549 | 53 | 206 | 1.7 | 7.0 | 0.00 | 0.00 | 0.00 | 65 | 1009.8 |
| 20260502012047 | 53 | 210 | 3.5 | 7.0 | 0.00 | 0.00 | 0.00 | 66 | 1009.8 |
| 20260502011559 | 53 | 190 | 3.5 | 7.0 | 0.00 | 0.00 | 0.00 | 65 | 1009.7 |
| 20260502011049 | 53 | 199 | 3.5 | 8.7 | 0.00 | 0.00 | 0.00 | 66 | 1009.9 |
| 20260502010546 | 53 | 234 | 2.6 | 8.7 | 0.00 | 0.00 | 0.00 | 65 | 1009.7 |
| 20260502010058 | 53 | 188 | 5.2 | 7.8 | 0.00 | 0.00 | 0.00 | 66 | 1009.6 |
| 20260502005547 | 54 | 221 | 2.6 | 8.7 | 0.00 | 0.00 | 0.00 | 65 | 1009.8 |
| 20260502005047 | 54 | 160 | 2.6 | 8.7 | 0.00 | 0.00 | 0.00 | 65 | 1009.6 |
| 20260502004557 | 54 | 161 | 3.5 | 7.0 | 0.00 | 0.00 | 0.00 | 64 | 1009.6 |
| 20260502004050 | 54 | 184 | 4.3 | 7.0 | 0.00 | 0.00 | 0.00 | 64 | 1009.3 |
| 20260502003548 | 54 | 185 | 3.5 | 6.1 | 0.00 | 0.00 | 0.00 | 64 | 1009.2 |
| 20260502003053 | 54 | 174 | 2.6 | 5.2 | 0.00 | 0.00 | 0.00 | 64 | 1009.2 |
| 20260502002547 | 55 | 184 | 3.5 | 5.2 | 0.00 | 0.00 | 0.00 | 63 | 1009.1 |
| 20260502002048 | 55 | 191 | 2.6 | 5.2 | 0.00 | 0.00 | 0.00 | 63 | 1009.1 |
| 20260502001604 | 55 | 180 | 2.6 | 6.1 | 0.00 | 0.00 | 0.00 | 62 | 1009.1 |
| 20260502001048 | 55 | 172 | 2.6 | 6.1 | 0.00 | 0.00 | 0.00 | 62 | 1009.0 |
| 20260502000548 | 55 | 188 | 3.5 | 7.8 | 0.00 | 0.00 | 0.00 | 62 | 1008.9 |
| 20260502000101 | 55 | 207 | 1.7 | 7.8 | 0.00 | 0.00 | 0.00 | 62 | 1008.9 |
| 20260501235547 | 56 | 179 | 5.2 | 7.8 | 0.00 | 0.00 | 0.00 | 61 | 1008.9 |
| 20260501235052 | 56 | 257 | 2.6 | 7.0 | 0.00 | 0.00 | 0.00 | 61 | 1008.9 |
| 20260501234603 | 56 | 0 | 0.9 | 7.8 | 0.00 | 0.00 | 0.00 | 61 | 1008.8 |
| 20260501234047 | 56 | 176 | 5.2 | 7.8 | 0.00 | 0.00 | 0.00 | 60 | 1008.7 |